Tracking 29892 objects as of 21-Nov-2024
HD Live streaming from Space Station
objects crossing your sky now

OPS 4682 DEB

Track OPS 4682 DEB now!
10-day predictions


NORAD ID: 38375
Int'l Code: 1965-027CC
Perigee: 1,267.3 km
Apogee: 1,313.3 km
Inclination: 90.2 °
Period: 111.2 minutes
Semi major axis: 7661 km
RCS: 0.0064 m2 (small)
Launch date: April 3, 1965
Source: United States (US)
Launch site: AIR FORCE WESTERN TEST RANGE (AFWTR)

Note: This is SATELLITE DEBRIS
Your satellite tracking list
Your tracking list is empty




NASA's NSSDC Master Catalog

Two Line Element Set (TLE):
1 38375U 65027CC  24325.86755630  .00000276  00000-0  96321-3 0  9991
2 38375  90.2380 354.5833 0030042 270.0005  89.7672 12.94638196952660
Source of the keplerian elements: AFSPC